Home   Weather   Dawson City   Past weeks

Flag for Canada Past Weather in Dawson City, Yukon, Canada — Yesterday and Last 2 Weeks

Now
68 °F

Partly sunny.


Feels Like: 68 °F
Forecast: 41 / 66 °F
Wind: 10 mph from East

Location: Dawson

Current Time: Aug 16, 2017 at 4:56:36 pm

Latest Report: Aug 16, 2017 at 4:00 pm


Visibility: 20 mi

Pressure: 29.52 "Hg

Humidity: 43%

Dew Point: 45 °F

Location of Dawson CityLocation

Past Weather in Dawson City — Graph

°F

Dawson City Temperature Yesterday

Maximum temperature yesterday: 61 °F (at 8:00 pm)
Minimum temperature yesterday: 46 °F (at 8:00 am)
Average temperature yesterday: 54 °F

High & Low Weather Summary for the Past Weeks

 TemperatureHumidityPressure
High86 °F (Aug 7, 7:00 pm)100% (Aug 7, 8:00 am)30.23 "Hg (Aug 7, 8:00 am)
Low41 °F (Aug 16, 6:00 am)18% (Aug 7, 7:00 pm)29.26 "Hg (Aug 13, 7:00 pm)
Average66 °F55%29.89 "Hg
* Reported Aug 1 3:00 pm — Aug 16 3:00 pm, Dawson City. Weather by CustomWeather, © 2017

Note: Actual official high and low records may vary slightly from our data, if they occured in-between our weather recording intervals... More about our weather records

Advertising

Dawson City Weather History for the Previous 24 Hours

Scroll right to see more
 ConditionsComfort  
Time TempWeatherWind HumidityBarometerVisibility
3:00 pm
Wed, Aug 16
66 °FMore clouds than sun.9 mph46%29.53 "Hg20 mi
2:00 pm64 °FOvercast.9 mph52%29.55 "Hg20 mi
1:00 pm63 °FPartly sunny.12 mph56%29.57 "Hg20 mi
12:00 pm59 °FBroken clouds.14 mph59%29.59 "Hg20 mi
11:00 am52 °FMostly cloudy.9 mph77%29.62 "Hg20 mi
10:00 am48 °FPartly sunny.3 mph82%29.64 "Hg20 mi
9:00 am45 °FBroken clouds.6 mph87%29.66 "Hg20 mi
8:00 am41 °FFog.6 mph100%29.66 "Hg1 mi
7:00 am41 °FCloudy.6 mph93%29.66 "Hg20 mi
6:00 am41 °FPassing clouds.5 mph93%29.66 "Hg20 mi
8:00 pm
Tue, Aug 15
61 °FScattered showers. Broken clouds.No wind63%29.62 "Hg20 mi
7:00 pm59 °FBroken clouds.No wind68%29.62 "Hg20 mi
6:00 pm59 °FScattered showers. Broken clouds.2 mph72%29.63 "Hg20 mi
5:00 pm59 °FSprinkles. Partly sunny.6 mph77%29.65 "Hg20 mi
4:28 pm59 °FScattered showers. Broken clouds.3 mph77%29.65 "Hg20 mi
4:00 pm57 °FSprinkles. Mostly cloudy.2 mph82%29.65 "Hg15 mi
Weather by CustomWeather, © 2017

See weather overviewHow to use our weather pages